• In Belarus
  • List of Countries
  • For 7 days
  • Water Temperature
  • Weather Map
  • Weather Widgets
  • user-avatar
    Login

    Hourly Weather Kuntaur

    Today, 29 January, Wednesday

    Time Temperature Precipitation Wind Pressure Humidity
    00:00 +27°C° 0 mm 2 mps 758 mmHg 16%
    01:00 +26°C° 0 mm 1 mps 757 mmHg 19%
    02:00 +24°C° 0 mm 1 mps 757 mmHg 22%
    03:00 +24°C° 0 mm 1 mps 757 mmHg 23%
    04:00 +21°C° 0 mm 0 mps 757 mmHg 24%
    05:00 +20°C° 0 mm 0 mps 757 mmHg 28%
    06:00 +22°C° 0 mm 0 mps 758 mmHg 25%
    07:00 +25°C° 0 mm 1 mps 758 mmHg 21%
    08:00 +27°C° 0 mm 1 mps 759 mmHg 17%
    09:00 +31°C° 0 mm 2 mps 758 mmHg 13%
    10:00 +35°C° 0 mm 3 mps 758 mmHg 8%
    11:00 +40°C° 0 mm 4 mps 758 mmHg 6%
    12:00 +41°C° 0 mm 4 mps 757 mmHg 5%
    13:00 +42°C° 0 mm 5 mps 756 mmHg 4%
    14:00 +45°C° 0 mm 5 mps 755 mmHg 4%
    15:00 +43°C° 0 mm 5 mps 755 mmHg 4%
    16:00 +43°C° 0 mm 4 mps 756 mmHg 3%
    17:00 +42°C° 0 mm 4 mps 756 mmHg 3%
    18:00 +38°C° 0 mm 3 mps 756 mmHg 4%
    19:00 +35°C° 0 mm 3 mps 757 mmHg 4%
    20:00 +31°C° 0 mm 2 mps 758 mmHg 5%
    21:00 +30°C° 0 mm 2 mps 758 mmHg 5%
    22:00 +29°C° 0 mm 2 mps 758 mmHg 6%
    23:00 +28°C° 0 mm 3 mps 758 mmHg 6%

    Tomorrow, 30 January, Thursday

    Time Temperature Precipitation Wind Pressure Humidity
    00:00 +27°C° 0 mm 3 mps 758 mmHg 8%
    01:00 +26°C° 0 mm 2 mps 758 mmHg 9%
    02:00 +25°C° 0 mm 2 mps 758 mmHg 10%
    03:00 +25°C° 0 mm 2 mps 758 mmHg 11%
    04:00 +24°C° 0 mm 3 mps 758 mmHg 13%
    05:00 +22°C° 0 mm 3 mps 758 mmHg 14%
    06:00 +25°C° 0 mm 4 mps 759 mmHg 13%
    07:00 +27°C° 0 mm 5 mps 759 mmHg 13%
    08:00 +29°C° 0 mm 7 mps 760 mmHg 13%
    09:00 +33°C° 0 mm 7 mps 759 mmHg 10%
    10:00 +36°C° 0 mm 7 mps 759 mmHg 8%
    11:00 +41°C° 0 mm 7 mps 759 mmHg 6%
    12:00 +43°C° 0 mm 7 mps 758 mmHg 5%
    13:00 +44°C° 0 mm 6 mps 757 mmHg 4%
    14:00 +45°C° 0 mm 6 mps 756 mmHg 4%
    15:00 +45°C° 0 mm 5 mps 756 mmHg 4%
    16:00 +43°C° 0 mm 4 mps 756 mmHg 4%
    17:00 +43°C° 0 mm 3 mps 756 mmHg 4%
    18:00 +39°C° 0 mm 3 mps 756 mmHg 5%
    19:00 +36°C° 0 mm 3 mps 757 mmHg 7%
    20:00 +31°C° 0 mm 3 mps 758 mmHg 8%
    21:00 +31°C° 0 mm 3 mps 758 mmHg 8%
    22:00 +30°C° 0 mm 3 mps 758 mmHg 9%
    23:00 +29°C° 0 mm 4 mps 759 mmHg 10%

    Day after tomorrow, 31 January, Friday

    Time Temperature Precipitation Wind Pressure Humidity
    00:00 +29°C° 0 mm 4 mps 758 mmHg 10%
    01:00 +28°C° 0 mm 4 mps 758 mmHg 11%
    02:00 +28°C° 0 mm 4 mps 758 mmHg 11%
    03:00 +27°C° 0 mm 4 mps 758 mmHg 12%
    04:00 +26°C° 0 mm 4 mps 758 mmHg 13%
    05:00 +25°C° 0 mm 4 mps 758 mmHg 14%
    06:00 +26°C° 0 mm 4 mps 758 mmHg 13%
    07:00 +28°C° 0 mm 5 mps 759 mmHg 12%
    08:00 +29°C° 0 mm 6 mps 760 mmHg 11%
    09:00 +33°C° 0 mm 6 mps 759 mmHg 10%
    10:00 +36°C° 0 mm 6 mps 759 mmHg 8%
    11:00 +40°C° 0 mm 7 mps 759 mmHg 7%
    12:00 +42°C° 0 mm 6 mps 758 mmHg 6%
    13:00 +44°C° 0 mm 6 mps 757 mmHg 5%
    14:00 +45°C° 0 mm 6 mps 756 mmHg 5%
    15:00 +45°C° 0 mm 5 mps 756 mmHg 5%
    16:00 +43°C° 0 mm 5 mps 755 mmHg 5%
    17:00 +42°C° 0 mm 5 mps 755 mmHg 5%
    18:00 +38°C° 0 mm 4 mps 756 mmHg 7%
    19:00 +35°C° 0 mm 4 mps 756 mmHg 8%
    20:00 +32°C° 0 mm 4 mps 757 mmHg 9%
    21:00 +30°C° 0 mm 4 mps 757 mmHg 10%
    22:00 +30°C° 0 mm 4 mps 757 mmHg 10%
    23:00 +29°C° 0 mm 4 mps 757 mmHg 11%

    1 February, Saturday

    Time Temperature Precipitation Wind Pressure Humidity
    00:00 +28°C° 0 mm 4 mps 757 mmHg 12%
    01:00 +27°C° 0 mm 3 mps 757 mmHg 12%
    02:00 +26°C° 0 mm 3 mps 757 mmHg 13%
    03:00 +25°C° 0 mm 3 mps 757 mmHg 13%
    04:00 +23°C° 0 mm 2 mps 757 mmHg 14%
    05:00 +22°C° 0 mm 1 mps 757 mmHg 15%
    06:00 +24°C° 0 mm 2 mps 758 mmHg 14%
    07:00 +25°C° 0 mm 3 mps 758 mmHg 12%
    08:00 +27°C° 0 mm 3 mps 758 mmHg 11%
    09:00 +32°C° 0 mm 4 mps 758 mmHg 9%
    10:00 +35°C° 0 mm 4 mps 758 mmHg 8%
    11:00 +40°C° 0 mm 5 mps 758 mmHg 6%
    12:00 +41°C° 0 mm 5 mps 757 mmHg 6%
    13:00 +43°C° 0 mm 4 mps 756 mmHg 5%
    14:00 +44°C° 0 mm 4 mps 755 mmHg 5%
    15:00 +44°C° 0 mm 3 mps 755 mmHg 5%
    16:00 +43°C° 0 mm 3 mps 754 mmHg 5%
    17:00 +42°C° 0 mm 2 mps 754 mmHg 5%
    18:00 +39°C° 0 mm 1 mps 755 mmHg 7%
    19:00 +35°C° 0 mm 1 mps 755 mmHg 8%
    20:00 +29°C° 0 mm 0 mps 756 mmHg 9%
    21:00 +29°C° 0 mm 1 mps 757 mmHg 16%
    22:00 +27°C° 0 mm 2 mps 757 mmHg 23%
    23:00 +25°C° 0 mm 3 mps 757 mmHg 29%

    2 February, Sunday

    Time Temperature Precipitation Wind Pressure Humidity
    00:00 +24°C° 0 mm 3 mps 757 mmHg 34%
    01:00 +23°C° 0 mm 2 mps 757 mmHg 39%
    02:00 +21°C° 0 mm 2 mps 757 mmHg 43%
    03:00 +21°C° 0 mm 2 mps 757 mmHg 48%
    04:00 +20°C° 0 mm 2 mps 757 mmHg 53%
    05:00 +20°C° 0 mm 2 mps 757 mmHg 58%
    06:00 +22°C° 0 mm 1 mps 757 mmHg 54%
    07:00 +23°C° 0 mm 1 mps 758 mmHg 49%
    08:00 +24°C° 0 mm 1 mps 758 mmHg 45%
    09:00 +28°C° 0 mm 2 mps 758 mmHg 36%
    10:00 +31°C° 0 mm 2 mps 758 mmHg 27%
    11:00 +36°C° 0 mm 2 mps 757 mmHg 18%
    12:00 +37°C° 0 mm 2 mps 757 mmHg 16%
    13:00 +39°C° 0 mm 2 mps 756 mmHg 14%
    14:00 +41°C° 0 mm 2 mps 755 mmHg 12%
    15:00 +41°C° 0 mm 2 mps 755 mmHg 12%
    16:00 +41°C° 0 mm 2 mps 755 mmHg 11%
    17:00 +40°C° 0 mm 2 mps 755 mmHg 11%
    18:00 +38°C° 0 mm 2 mps 756 mmHg 14%
    19:00 +35°C° 0 mm 2 mps 757 mmHg 17%
    20:00 +32°C° 0 mm 2 mps 758 mmHg 20%
    21:00 +30°C° 0 mm 3 mps 758 mmHg 27%
    22:00 +27°C° 0 mm 4 mps 758 mmHg 34%
    23:00 +25°C° 0 mm 4 mps 758 mmHg 40%

    3 February, Monday

    Time Temperature Precipitation Wind Pressure Humidity
    00:00 +23°C° 0 mm 4 mps 758 mmHg 45%
    01:00 +22°C° 0 mm 3 mps 758 mmHg 50%
    02:00 +21°C° 0 mm 3 mps 758 mmHg 55%
    03:00 +20°C° 0 mm 2 mps 758 mmHg 55%
    04:00 +20°C° 0 mm 2 mps 758 mmHg 55%
    05:00 +20°C° 0 mm 1 mps 758 mmHg 55%
    06:00 +22°C° 0 mm 1 mps 758 mmHg 50%
    07:00 +23°C° 0 mm 1 mps 758 mmHg 46%
    08:00 +24°C° 0 mm 1 mps 759 mmHg 42%
    09:00 +28°C° 0 mm 1 mps 759 mmHg 33%
    10:00 +33°C° 0 mm 1 mps 758 mmHg 23%
    11:00 +37°C° 0 mm 1 mps 758 mmHg 14%
    12:00 +39°C° 0 mm 1 mps 757 mmHg 12%
    13:00 +41°C° 0 mm 1 mps 756 mmHg 11%
    14:00 +42°C° 0 mm 1 mps 755 mmHg 9%
    15:00 +42°C° 0 mm 2 mps 755 mmHg 9%
    16:00 +41°C° 0 mm 2 mps 755 mmHg 9%
    17:00 +41°C° 0 mm 2 mps 755 mmHg 8%
    18:00 +38°C° 0 mm 2 mps 755 mmHg 10%
    19:00 +34°C° 0 mm 1 mps 756 mmHg 12%
    20:00 +32°C° 0 mm 1 mps 757 mmHg 14%
    21:00 +30°C° 0 mm 2 mps 757 mmHg 20%
    22:00 +28°C° 0 mm 3 mps 757 mmHg 27%
    23:00 +27°C° 0 mm 4 mps 757 mmHg 33%
    Show more